Location: Faicchio
(41.2833°N, 14.4833°E)
Time: 06:37:33
(UTC+00:00)

Cosmos 2151 Rocket - Pass Details

Date: 15 June 2025
Orbit: 613 x 635 km, 82.5° (Epoch: 16 July)

Event Time Altitude Azimuth Distance (km) Brightness Sun altitude
Rises 00:17:30 0° 352° (N) 2,908 8.1 -23.1°
Reaches altitude 10° 00:19:44 10° 353° (N) 2,000 7.0 -23.0°
Maximum altitude 00:24:10 86° 80° (E) 633 3.5 -22.7°
Enters shadow 00:24:42 69° 162° (SSE) 671 3.5 -22.7°
